Regional Weather Roundup
Issued by NWS

Home | Current Version | Previous Version | Text Only | Print | Product List | Glossary Off
Versions: 1 2 3 4 5 6 7 8 9 10 11 12 13 14 15 16 17 18 19 20 21 22 23 24 25 26 27 28 29 30 31 32 33 34 35 36 37 38 39 40 41 42 43 44 45 46 47 48 49 50

000
ASUS43 KMKX 290821
RWRWI

WISCONSIN REGIONAL WEATHER ROUNDUP
NATIONAL WEATHER SERVICE MILWAUKEE/SULLIVAN WI
200 AM CST SAT NOV 29 2014

NOTE: "FAIR" INDICATES FEW OR NO CLOUDS BELOW 12,000 FEET WITH NO
SIGNIFICANT WEATHER AND/OR OBSTRUCTIONS TO VISIBILITY.

WIZ001-002-006>008-014>016-023>028-290900-
NORTHWEST WISCONSIN

CITY           SKY/WX    TMP DP  RH WIND       PRES   REMARKS
SUPERIOR ARPT  CLOUDY    20  16  84 CALM      29.68F
ASHLAND        PTCLDY    19  15  84 CALM      29.70F
HAYWARD        FAIR      19  16  88 S3        29.65F
SIREN          PTCLDY    20  17  88 S5        29.64F WCI  14
CUMBERLAND     CLOUDY    19  18  93 SE7       29.65F WCI  10
RICE LAKE      PTCLDY    19  17  90 E7        29.68F WCI  10
CHETEK         CLOUDY    19  17  90 E5        29.68F WCI  12
LADYSMITH      CLEAR     19  17  92 SE5       29.71F WCI  12
EAU CLAIRE     PTCLDY    20  17  88 E8        29.67F WCI  10
MENOMONIE      PTCLDY    20  19  93 NE5       29.68S FOG     WCI  14
NEW RICHMOND   PTCLDY    20  19  93 E7        29.64F WCI  11
OSCEOLA        PTCLDY    22  19  90 E12       29.65F WCI  10
$$

WIZ003>005-009-010-017-018-290900-
NORTH CENTRAL WISCONSIN

CITY           SKY/WX    TMP DP  RH WIND       PRES   REMARKS
MANITOWISH WTR CLOUDY    17  15  94 SE7       29.65F WCI   7
ARBOR VITAE    CLOUDY    19  17  90 SE5       29.69R WCI  12
WOODRUFF       CLOUDY    19  17  90 SE5       29.69R WCI  12
RHINELANDER    CLOUDY    17  16  95 S7        29.70F FOG     WCI   8
EAGLE RIVER    CLOUDY    17  15  94 S5        29.69F FOG     WCI  10
LAND O LAKES   CLOUDY    17  16  93 S5        29.69F WCI  10
PHILLIPS       CLOUDY    16  14  92 SE5       29.68F WCI   8
TOMAHAWK       CLOUDY    18  17  93 CALM      29.72S FOG
MEDFORD        CLOUDY    19  18  96 SE5       29.69F FOG     WCI  13
MERRILL        CLOUDY    19  18  96 CALM      29.72F FOG
$$

WIZ029-030-035-036-043>047-290900-
CENTRAL WISCONSIN

CITY           SKY/WX    TMP DP  RH WIND       PRES   REMARKS
WAUSAU         CLOUDY    20  18  92 E7        29.72F FOG     WCI  11
MOSINEE        CLOUDY    21  21 100 E5        29.74S FOG     WCI  15
MARSHFIELD     CLOUDY    23  20  88 E7        29.71F FOG     WCI  15
STEVENS POINT  CLOUDY    21  20  95 E3        29.74S FOG
WAUPACA        CLOUDY    27  24  87 E3        29.76F FOG
WAUTOMA        CLOUDY    25  24  96 CALM      29.75F FOG
WISC RAPIDS    CLOUDY    24  21  88 E5        29.74F FOG     WCI  18
CAMP DOUGLAS   MOCLDY    22  22 100 E5        29.71F WCI  16
$$

WIZ011>013-019>022-031-037>040-048>050-290900-
NORTHEAST WISCONSIN

CITY           SKY/WX    TMP DP  RH WIND       PRES   REMARKS
ANTIGO         CLOUDY    19  18  96 SE8       29.73F FOG     WCI   8
SHAWANO        CLOUDY    24  22  91 NE3       29.78F
OCONTO         CLOUDY    21  21 100 CALM      29.80F
STURGEON BAY   MOCLDY    28  27  93 S6        29.80F WCI  22
GREEN BAY      MIX PCPN  29  27  92 E3        29.78F FOG
MANITOWOC      CLOUDY    34  32  92 S6        29.81F WCI  29
APPLETON       MOCLDY    30  28  93 SE9       29.77F FOG     WCI  22
CLINTONVILLE   CLOUDY    25  23  93 CALM      29.77F FOG
OSHKOSH        MOCLDY    30  27  88 MISG      29.76F FOG
$$

WIZ032>034-041-042-053>061-290900-
SOUTHWEST WISCONSIN

CITY           SKY/WX    TMP DP  RH WIND       PRES   REMARKS
LA CROSSE      PTCLDY    25  21  85 SE6       29.69F WCI  18
SPARTA         PTCLDY    21  20  98 CALM      29.71S FOG
VIROQUA        CLOUDY    26  26 100 SE8       29.67F WCI  17
BOSCOBEL       CLEAR     23  20  88 NE5       29.72F FOG     WCI  17
PRAIRIE DU CHI CLEAR     28  26  92 CALM      29.70S FOG
PLATTEVILLE    PTCLDY    27  26  96 CALM      29.70F
$$

WIZ056-057-062-063-064-067-068-290900-
SOUTH CENTRAL WISCONSIN

CITY           SKY/WX    TMP DP  RH WIND       PRES   REMARKS
REEDSBURG      PTCLDY    22  21  97 CALM      29.71F FOG
BARABOO/DELLS  PTCLDY    24  23  96 SE6       29.71F FOG     WCI  17
LONE ROCK      CLEAR     31  25  78 E7        29.73F WCI  24
MINERAL POINT  CLEAR     32  30  93 SE12      29.70S FOG     WCI  23
MADISON        CLEAR     24  22  91 CALM      29.74F FOG
MIDDLETON      CLEAR     31  30  96 SE7       29.73F WCI  24
WATERTOWN      MOCLDY    29  29 100 SE5       29.76F FOG     WCI  24
MONROE         CLEAR     30  30 100 S10       29.73S WCI  21
JANESVILLE     CLEAR     32  30  93 S12       29.76F WCI  23
$$

WIZ051-052-058>065-066-070>072-290900-
SOUTHEAST WISCONSIN

CITY           SKY/WX    TMP DP  RH WIND       PRES   REMARKS
MILWAUKEE      MOCLDY    33  28  81 S9        29.81F WCI  25
WAUKESHA       MOCLDY    28  27  93 SE5       29.80F FOG     WCI  23
MILWAUKEE/TIMM MOCLDY    32  28  86 SE3       29.81S FOG
RACINE         PTCLDY    35  29  78 S12       29.83F WCI  27
BURLINGTON     PTCLDY    25  25  99 SE5       29.79F FOG     WCI  20
KENOSHA        PTCLDY    32  28  85 SE7       29.81F WCI  26
FOND DU LAC    MOCLDY    30  27  88 S10       29.77F WCI  21
SHEBOYGAN      MOCLDY    34  31  88 S6        29.80F WCI  29
WEST BEND      CLOUDY    30  28  93 SE6       29.78F FOG     WCI  24
JUNEAU         MOCLDY    29  28  94 SE10      29.77F FOG     WCI  20
$$

LSZ147-162-290900-
LAKE SUPERIOR

STATION/POSITION TIME  TEMP    WIND        PRES    WAVE
                       AIR SEA DIR/SP/G            HT/PER
                 (UTC) (F)     (DEG/KT/KT) (MB)    (FT/S)
DEVILS ISLAND    0800   23     170/  7/ 10 1006.4F
PORT WING        0720   20      80/  3/  4 1005.8F
SAXON HARBOR     0700   22        CALM     1006.4F
$$

LMZ867-665-643>646-290900-
LAKE MICHIGAN

STATION/POSITION TIME  TEMP    WIND        PRES    WAVE
                       AIR SEA DIR/SP/G            HT/PER
                 (UTC) (F)     (DEG/KT/KT) (MB)    (FT/S)
CHAMBERS ISLAND  0700   31     170/  3/  7 1010.5F
N MID LAKE BUOY  0750   33 42  180/ 19/ 25 1011.3F   7/ 7
NORTHPORT PIER   0724   32     200/  2/ 17 1010.5F
SISTER BAY       0728          210/  8/  9   N/A
KEWAUNEE LAKESHO 0800   32     210/  1/  4 1008.9F
SHEBOYGAN LAKESH 0800   38 36  180/ 18/ 20 1009.8F
PORT WASHINGTON  0740   37     170/ 12/ 16 1010.5F
MILWAUKEE LAKESH 0800   36     170/ 13/ 15   N/A
S MID LAKE BUOY  0750   39 42  180/ 19/ 21 1011.5F   5/ 6
KENOSHA   LAKESH 0800   35     180/  8/ 14 1009.8F
$$

TC  - TEMPERATURE IN CELSIUS
VSB - VISIBILITY IN STATUTE MILES
WCI - WIND CHILL INDEX
HX  - HEAT INDEX



USA.gov is the U.S. government's official web portal to all federal, state and local government web resources and services.